Weather History for Mackinac Island, MI

Change the Weather History Date:

Thursday, November 11, 2010

  Actual Average Record
Temperature  
Mean Temperature 46 °F -  
Max Temperature 51 °F 40 °F 63 °F (2012)
Min Temperature 41 °F 31 °F 19 °F (1985)
Degree Days  
Heating Degree Days 19    
Moisture  
Dew Point 39 °F    
Average Humidity 82    
Maximum Humidity 93    
Minimum Humidity 58    
Precipitation  
Precipitation 0.00 in - - ()
Sea Level Pressure  
Sea Level Pressure 30.28 in    
Wind  
Wind Speed 4 mph (SE)    
Max Wind Speed 9 mph    
Max Gust Speed 18 mph    
Visibility 10 miles    
Events      
Averages and records for this station are not official NWS values.
T = Trace of Precipitation, MM = Missing Value Source: NWS Daily Summary

Daily Weather History Graph

Daily Weather History Graph

Search for Another Location

Airport:

Trip Planner

Search our weather history database for the weather conditions in past years. The results will help you decide how hot, cold, wet, or windy it might be!

Date:

Astronomy

Nov. 11, 2010 Rise Set
Actual Time 7:32 AM EST 5:11 PM EST
Civil Twilight 7:00 AM EST 5:43 PM EST
Nautical Twilight 6:25 AM EST 6:19 PM EST
Astronomical Twilight 5:50 AM EST 6:54 PM EST
Moon 12:34 PM EST (11/11) 10:15 PM EST (11/11)
Length of Visible Light 10h 42m
Length of Day
9h 38m
Waxing Crescent, 31% of the Moon is Illuminated
Nov 11
Waxing Crescent
Nov 13
First Quarter
Nov 21
Full
Nov 28
Last Quarter
Dec 5
New

Hourly Weather History & Observations

Time (EST) Temp. Windchill Dew Point Humidity Pressure Visibility Wind Dir Wind Speed Gust Speed Precip Events Conditions
12:16 AM 42.8 °F 40.1 °F 41.0 °F 93% 30.26 in 10.0 mi SE 4.6 mph - N/A   Clear
12:36 AM 42.8 °F 40.1 °F 41.0 °F 93% 30.26 in 7.0 mi SE 4.6 mph - N/A   Clear
12:56 AM 42.8 °F 38.6 °F 41.0 °F 93% 30.26 in 7.0 mi SE 6.9 mph - N/A   Clear
1:16 AM 42.8 °F 39.3 °F 41.0 °F 93% 30.26 in 10.0 mi SE 5.8 mph - N/A   Clear
1:36 AM 42.8 °F 38.6 °F 39.2 °F 87% 30.25 in 7.0 mi SE 6.9 mph - N/A   Clear
1:56 AM 42.8 °F 39.3 °F 39.2 °F 87% 30.25 in 7.0 mi SSE 5.8 mph - N/A   Clear
2:16 AM 42.8 °F 39.3 °F 39.2 °F 87% 30.27 in 7.0 mi SSE 5.8 mph - N/A   Clear
2:36 AM 42.8 °F 37.5 °F 39.2 °F 87% 30.27 in 7.0 mi SSE 9.2 mph 18.4 mph N/A   Clear
2:56 AM 42.8 °F 38.6 °F 39.2 °F 87% 30.27 in 7.0 mi South 6.9 mph - N/A   Clear
3:16 AM 42.8 °F 40.1 °F 39.2 °F 87% 30.27 in 7.0 mi SSE 4.6 mph - N/A   Clear
3:36 AM 42.8 °F 40.1 °F 39.2 °F 87% 30.27 in 7.0 mi SSE 4.6 mph - N/A   Clear
3:56 AM 42.8 °F 41.1 °F 37.4 °F 81% 30.27 in 10.0 mi SSE 3.5 mph - N/A   Clear
4:16 AM 42.8 °F 40.1 °F 37.4 °F 81% 30.27 in 10.0 mi SSE 4.6 mph - N/A   Clear
4:36 AM 42.8 °F - 37.4 °F 81% 30.27 in 10.0 mi Calm Calm - N/A   Clear
4:56 AM 42.8 °F 41.1 °F 37.4 °F 81% 30.27 in 10.0 mi SE 3.5 mph - N/A   Clear
5:36 AM 41.0 °F 38.0 °F 35.6 °F 81% 30.28 in 10.0 mi SSE 4.6 mph - N/A   Clear
5:56 AM 41.0 °F 38.0 °F 35.6 °F 81% 30.28 in 10.0 mi SSE 4.6 mph - N/A   Clear
6:16 AM 41.0 °F - 35.6 °F 81% 30.28 in 10.0 mi Calm Calm - N/A   Clear
6:36 AM 41.0 °F 39.0 °F 33.8 °F 76% 30.27 in 10.0 mi SSE 3.5 mph - N/A   Clear
6:56 AM 41.0 °F 38.0 °F 33.8 °F 76% 30.26 in 10.0 mi SSE 4.6 mph - N/A   Clear
7:16 AM 41.0 °F 36.4 °F 33.8 °F 76% 30.27 in 10.0 mi SE 6.9 mph - N/A   Clear
7:36 AM 41.0 °F 37.1 °F 33.8 °F 76% 30.27 in 10.0 mi SSE 5.8 mph - N/A   Clear
7:56 AM 41.0 °F 37.1 °F 33.8 °F 76% 30.27 in 10.0 mi SSE 5.8 mph - N/A   Clear
8:16 AM 41.0 °F 38.0 °F 33.8 °F 76% 30.27 in 10.0 mi SSE 4.6 mph - N/A   Clear
8:36 AM 42.8 °F 39.3 °F 33.8 °F 70% 30.28 in 10.0 mi SSE 5.8 mph - N/A   Clear
8:56 AM 42.8 °F 39.3 °F 33.8 °F 70% 30.27 in 10.0 mi SSE 5.8 mph - N/A   Clear
9:16 AM 42.8 °F 38.0 °F 33.8 °F 70% 30.27 in 10.0 mi SSE 8.1 mph - N/A   Clear
9:36 AM 42.8 °F 40.1 °F 35.6 °F 76% 30.27 in 10.0 mi SSE 4.6 mph - N/A   Clear
9:56 AM 44.6 °F 43.1 °F 35.6 °F 71% 30.27 in 10.0 mi SE 3.5 mph - N/A   Clear
10:16 AM 46.4 °F 45.2 °F 35.6 °F 66% 30.27 in 10.0 mi SSE 3.5 mph - N/A   Clear
10:36 AM 46.4 °F - 35.6 °F 66% 30.29 in 10.0 mi Calm Calm - N/A   Clear
10:56 AM 50.0 °F - 35.6 °F 58% 30.29 in 10.0 mi SSE 5.8 mph - N/A   Scattered Clouds
11:16 AM 50.0 °F - 37.4 °F 62% 30.28 in 10.0 mi SE 4.6 mph - N/A   Scattered Clouds
11:36 AM 51.8 °F - 37.4 °F 58% 30.27 in 10.0 mi SE 3.5 mph - N/A   Clear
11:56 AM 48.2 °F - 41.0 °F 76% 30.27 in 10.0 mi ESE 6.9 mph - N/A   Clear
12:16 PM 46.4 °F - 41.0 °F 81% 30.27 in 10.0 mi Calm Calm - N/A   Clear
12:36 PM 46.4 °F 42.9 °F 41.0 °F 81% 30.27 in 10.0 mi East 6.9 mph - N/A   Mostly Cloudy
12:55 PM 46.4 °F 42.9 °F 41.0 °F 81% 30.27 in 10.0 mi East 6.9 mph - N/A   Mostly Cloudy
1:16 PM 46.4 °F 44.3 °F 41.0 °F 81% 30.27 in 10.0 mi East 4.6 mph - N/A   Mostly Cloudy
1:36 PM 46.4 °F 44.3 °F 41.0 °F 81% 30.27 in 10.0 mi East 4.6 mph - N/A   Mostly Cloudy
1:56 PM 46.4 °F 45.2 °F 41.0 °F 81% 30.28 in 10.0 mi ESE 3.5 mph - N/A   Overcast
2:16 PM 48.2 °F - 42.8 °F 82% 30.27 in 10.0 mi East 4.6 mph - N/A   Mostly Cloudy
2:35 PM 46.4 °F 45.2 °F 42.8 °F 87% 30.28 in 10.0 mi East 3.5 mph - N/A   Mostly Cloudy
2:56 PM 46.4 °F - 42.8 °F 87% 30.28 in 10.0 mi Calm Calm - N/A   Mostly Cloudy
3:16 PM 46.4 °F 45.2 °F 42.8 °F 87% 30.29 in 10.0 mi East 3.5 mph - N/A   Overcast
3:36 PM 44.6 °F - 42.8 °F 93% 30.29 in 10.0 mi Calm Calm - N/A   Overcast
3:56 PM 44.6 °F 43.1 °F 42.8 °F 93% 30.30 in 10.0 mi East 3.5 mph - N/A   Overcast
4:16 PM 44.6 °F - 42.8 °F 93% 30.30 in 10.0 mi Calm Calm - N/A   Overcast
4:36 PM 44.6 °F - 42.8 °F 93% 30.30 in 10.0 mi Calm Calm - N/A   Overcast
4:56 PM 44.6 °F - 42.8 °F 93% 30.31 in 10.0 mi Calm Calm - N/A   Overcast
5:16 PM 44.6 °F - 42.8 °F 93% 30.30 in 10.0 mi Calm Calm - N/A   Overcast
5:35 PM 44.6 °F - 42.8 °F 93% 30.31 in 10.0 mi Calm Calm - N/A   Overcast
5:56 PM 44.6 °F - 42.8 °F 93% 30.31 in 10.0 mi Calm Calm - N/A   Scattered Clouds
6:16 PM 44.6 °F - 42.8 °F 93% 30.32 in 10.0 mi Calm Calm - N/A   Clear
6:36 PM 44.6 °F - 42.8 °F 93% 30.32 in 10.0 mi Calm Calm - N/A   Scattered Clouds
6:56 PM 44.6 °F - 42.8 °F 93% 30.32 in 10.0 mi Calm Calm - N/A   Mostly Cloudy
7:16 PM 44.6 °F - 42.8 °F 93% 30.33 in 10.0 mi Calm Calm - N/A   Clear
7:36 PM 46.4 °F - 44.6 °F 93% 30.33 in 7.0 mi Calm Calm - N/A   Clear
7:56 PM 48.2 °F - 44.6 °F 87% 30.33 in 7.0 mi WSW 3.5 mph - N/A   Scattered Clouds
8:16 PM 46.4 °F - 44.6 °F 93% 30.33 in 7.0 mi Calm Calm - N/A   Clear
8:36 PM 46.4 °F 45.2 °F 44.6 °F 93% 30.33 in 5.0 mi WSW 3.5 mph - N/A   Clear
8:56 PM 46.4 °F 45.2 °F 44.6 °F 93% 30.33 in 5.0 mi WSW 3.5 mph - N/A   Clear
9:16 PM 46.4 °F - 44.6 °F 93% 30.34 in 3.0 mi Calm Calm - N/A   Clear
9:36 PM 48.2 °F - 46.4 °F 93% 30.34 in 3.0 mi West 4.6 mph - N/A   Clear
9:56 PM 48.2 °F - 46.4 °F 93% 30.33 in 4.0 mi Calm Calm - N/A   Clear
10:16 PM 46.4 °F - 44.6 °F 93% 30.34 in 5.0 mi Calm Calm - N/A   Clear
10:36 PM 46.4 °F 44.3 °F 44.6 °F 93% 30.35 in 5.0 mi WSW 4.6 mph - N/A   Clear
10:56 PM 46.4 °F 45.2 °F 44.6 °F 93% 30.34 in 7.0 mi SSW 3.5 mph - N/A   Clear
11:16 PM 46.4 °F 45.2 °F 44.6 °F 93% 30.35 in 7.0 mi SW 3.5 mph - N/A   Clear
11:36 PM 46.4 °F 44.3 °F 44.6 °F 93% 30.35 in 5.0 mi WSW 4.6 mph - N/A   Clear
11:56 PM 46.4 °F 44.3 °F 44.6 °F 93% 30.35 in 5.0 mi WSW 4.6 mph - N/A   Clear